Regional Weather Roundup
Issued by NWS

Home | Current Version | Previous Version | Text Only | Print | Product List | Glossary On
Versions: 1 2 3 4 5 6 7 8 9 10 11 12 13 14 15 16 17 18 19 20 21 22 23 24 25 26 27 28 29 30 31 32 33 34 35 36 37 38 39 40 41 42 43 44 45 46 47 48 49 50
000
ASUS43 KOAX 301710
RWRNE

WEATHER ROUNDUP FOR NEBRASKA
NATIONAL WEATHER SERVICE OMAHA NE
1100 AM CST FRI JAN 30 2015

NOTES: SATELLITE DATA IS BEING USED TO AUGMENT CLOUD COVER ABOVE
       12000 FEET.
       "FAIR" INDICATES FEW OR NO CLOUDS BELOW 12,000 FEET WITH NO
       SIGNIFICANT WEATHER AND/OR OBSTRUCTIONS TO VISIBILITY.

  * THESE STATIONS DO NOT REPORT WEATHER SUCH AS RAIN...SNOW OR FOG.

NEZ001>004-019>022-054>056-301800-
NEBRASKA PANHANDLE

CITY           SKY/WX    TMP DP  RH WIND       PRES   REMARKS
SCOTTSBLUFF    PTSUNNY   34  25  69 CALM      30.20F
ALLIANCE       PTSUNNY   37  25  61 S8        30.19F WCI  31
CHADRON        PTSUNNY   40  23  50 SW7       30.20F
KIMBALL        CLOUDY    36  28  71 W3        30.16S
SIDNEY         CLOUDY    38  26  62 S7        30.19F WCI  33
$$

NEZ057>060-069>072-079>082-301800-
SOUTHWEST NEBRASKA

CITY           SKY/WX    TMP DP  RH WIND       PRES   REMARKS
NORTH PLATTE   PTSUNNY   39  24  55 S16       30.29F WCI  30
IMPERIAL       CLOUDY    40  26  57 S12       30.26F WCI  33
LEXINGTON      PTSUNNY   34  28  77 S8        30.36F WCI  28
MCCOOK         CLOUDY    41  28  60 S9        30.34F
OGALLALA       CLOUDY    36  28  71 S8        30.25F WCI  30
$$

NEZ005>010-023>029-035>040-094-301800-
NORTH CENTRAL NEBRASKA

CITY           SKY/WX    TMP DP  RH WIND       PRES   REMARKS
VALENTINE      PTSUNNY   41  26  55 SW17      30.22F
AINSWORTH      PTSUNNY   36  25  64 S16       30.26F WCI  26
BROKEN BOW     PTSUNNY   34  26  72 S8        30.33F WCI  27
O`NEILL        MOSUNNY   32  29  87 S17       30.34F WCI  21
ORD            CLOUDY    30  25  81 S10       30.37F WCI  21
THEDFORD       CLOUDY    41  25  52 S15G23    30.28S
$$

NEZ041-046>049-061>064-073>077-083>087-301800-
SOUTH CENTRAL NEBRASKA

CITY           SKY/WX    TMP DP  RH WIND       PRES   REMARKS
GRAND ISLAND     N/A     32  27  81 S12       30.43F WCI  23
AURORA         PTSUNNY   32  28  84 S10       30.44F WCI  23
HASTINGS       PTSUNNY   33  25  72 S10G20    30.42F WCI  25
HEBRON         PTSUNNY   34  26  72 S10       30.49F WCI  26
HOLDREGE       CLOUDY    31  26  79 S8        30.38F WCI  24
KEARNEY *      PTSUNNY   34  27  75 S13       30.39F WCI  25
YORK           PTSUNNY   28  28 100 S8        30.46F WCI  20
$$

NEZ011>018-030>034-042>045-301800-
NORTHEAST NEBRASKA

CITY           SKY/WX    TMP DP  RH WIND       PRES   REMARKS
NORFOLK        MOSUNNY   31  26  82 S9        30.43F WCI  23
ALBION         PTSUNNY   31  26  81 S15       30.41F WCI  20
BLAIR          SUNNY     28  19  69 S9        30.49F WCI  19
COLUMBUS *     MOSUNNY   30  21  69 S9        30.47F WCI  22
FREMONT        MOSUNNY   30  25  81 S9        30.50F WCI  22
TEKAMAH        SUNNY     29  20  69 S12       30.51F WCI  19
WAYNE          MOSUNNY   30  25  81 S13       30.46F WCI  20
$$

NEZ050>053-065>068-078-088>093-301800-
SOUTHEAST NEBRASKA

CITY           SKY/WX    TMP DP  RH WIND       PRES   REMARKS
LINCOLN        PTSUNNY   29  24  82 S8        30.51F WCI  21
OMAHA EPPLEY   MOSUNNY   27  18  69 S8        30.53F WCI  19
BEATRICE       PTSUNNY   30  24  78 S9        30.51F WCI  22
FALLS CITY     MOSUNNY   27  22  81 SW3       30.56R
NEBRASKA CITY  MOSUNNY   28  22  79 SE7       30.53F WCI  20
PLATTSMOUTH    MOSUNNY   28  19  69 S6        30.52F WCI  21
$$

NEZ044-045-051>053-067-301800-
OMAHA AREA

CITY           SKY/WX    TMP DP  RH WIND       PRES   REMARKS
OMAHA EPPLEY   MOSUNNY   27  18  69 S8        30.53F WCI  19
BLAIR          SUNNY     28  19  69 S9        30.49F WCI  19
FREMONT        MOSUNNY   30  25  81 S9        30.50F WCI  22
MILLARD        MOSUNNY   28  21  76 S8        30.53F WCI  20
OFFUTT AFB     SUNNY     27  19  73 SE6       30.53F WCI  20
PLATTSMOUTH    MOSUNNY   28  19  69 S6        30.52F WCI  21
WAHOO          FAIR      29  24  82 S12       30.50F WCI  20
$$


USA.gov is the U.S. government's official web portal to all federal, state and local government web resources and services.